[[{"header":{"parameterUnit":"m.s-1","parameterCategory":1,"la1":30.2991,"la2":30.254,"lo1":-89.0895,"lo2":-89.0444,"dy":0.0017,"dx":0.0017,"nx":28,"ny":28,"refTime":"2024-10-10T03:00:00:Z","depth":0,"parameterNumber":2,"parameterNumberName":"U-component_of_WINDS"},"data":[0,0,0,0,0,0,0,0,0,0,0,0,0,0,0,0,0,0,0,0,0,0,0,0,0,0,0,0,0,0,0,0,0,0,0,0,0,0,0,0,0,0,0,0,0,0,0,0,0,0,0,0,0,0,0,0,0,0,-1.0951,-1.0952,0,-1.0985,-1.0986,-1.0986,-1.1006,-1.1006,-1.1006,-1.1006,-1.1042,-1.1043,-1.1044,0,0,0,0,0,0,0,0,0,0,0,0,0,-1.0902,-1.0903,-1.0951,-1.0952,-1.0952,-1.0985,-1.0986,-1.0986,-1.1006,-1.1006,-1.1006,-1.1006,-1.1042,-1.1043,-1.1044,0,0,0,0,0,0,0,0,0,0,0,0,0,-1.0929,-1.0903,-1.0951,-1.0966,-1.0968,-1.0985,-1.0986,-1.0986,-1.1006,-1.1006,-1.1006,-1.1007,-1.1041,-1.1042,-1.1044,-1.1049,0,0,-1.1048,-1.1048,0,0,0,0,0,0,0,0,-1.0927,-1.093,-1.0963,-1.0965,-1.0967,-1.0992,-1.0981,-1.1007,-1.1006,-1.0992,-1.1006,-1.1007,-1.1025,-1.1028,-1.1034,-1.1051,-1.1052,-1.1048,-1.1049,-1.1049,-1.105,0,0,0,0,0,0,0,-1.0925,-1.0929,-1.0965,-1.0964,-1.0966,-1.0971,-1.0974,-1.0986,-1.1007,-1.0993,-1.0994,-1.0998,-1.1026,-1.1033,-1.1035,-1.1053,-1.1048,-1.1049,-1.105,-1.105,-1.1074,-1.1074,0,0,0,0,0,0,-1.0921,-1.0927,-1.0964,-1.0966,-1.0947,-1.0971,-1.0976,-1.0984,-1.1007,-1.1011,-1.0998,-1.0999,-1.103,-1.1033,-1.1036,-1.1043,-1.1049,-1.105,-1.1051,-1.1074,-1.1074,-1.1074,0,0,0,0,0,0,-1.092,-1.0924,-1.0962,-1.0947,-1.0952,-1.0972,-1.0981,-1.0984,-1.0991,-1.1011,-1.1015,-1.1001,-1.103,-1.1034,-1.1045,-1.1044,-1.1051,-1.1052,-1.1074,-1.1074,-1.1074,-1.1057,0,0,0,0,0,0,-1.0919,-1.0924,-1.0926,-1.0947,-1.0953,-1.0971,-1.0981,-1.0985,-1.0993,-1.0994,-1.1015,-1.1018,-1.1031,-1.1043,-1.1047,-1.1046,-1.1053,-1.1074,-1.1074,-1.1074,-1.1057,-1.1056,-1.1054,0,0,0,0,0,-1.0917,-1.0921,-1.0926,-1.0931,-1.0957,-1.0971,-1.0975,-1.0989,-1.0993,-1.0995,-1.1008,-1.1018,-1.1044,-1.1044,-1.1048,-1.1048,-1.1075,-1.1074,-1.1074,-1.1058,-1.1056,-1.1054,0,0,0,0,0,0,-1.0901,-1.0924,-1.093,-1.0941,-1.0954,-1.0975,-1.0978,-1.0987,-1.0999,-1.1,-1.1017,-1.1022,-1.1031,-1.1041,-1.1041,-1.1053,-1.106,-1.1061,-1.1047,-1.1045,-1.1044,-1.1041,-1.1054,0,0,0,0,0,-1.0898,-1.0908,-1.0928,-1.0936,-1.0941,-1.0959,-1.0965,-1.0975,-1.0989,-1.0995,-1.1008,-1.1021,-1.1032,-1.1039,-1.1051,-1.1059,-1.1063,-1.106,-1.1059,-1.1058,-1.1058,-1.1061,-1.106,-1.1073,-1.1073,-1.1073,0,0,-1.0894,-1.0907,-1.0913,-1.0933,-1.0944,-1.0953,-1.0963,-1.0973,-1.098,-1.0996,-1.1007,-1.1017,-1.1033,-1.1042,-1.1046,-1.105,-1.1055,-1.1057,-1.1056,-1.1057,-1.106,-1.1059,-1.1058,-1.1072,-1.1072,-1.1072,0,0,-1.089,-1.0902,-1.0908,-1.0919,-1.0935,-1.0946,-1.0947,-1.0966,-1.0973,-1.0984,-1.0996,-1.1004,-1.1023,-1.1033,-1.1041,-1.1038,-1.1046,-1.1041,-1.1033,-1.1036,-1.1035,-1.1034,-1.1032,-1.1031,-1.1041,-1.1041,-1.1041,0,-1.0882,-1.0896,-1.0911,-1.0919,-1.0927,-1.0941,-1.0948,-1.0957,-1.0976,-1.0981,-1.0985,-1.1007,-1.1019,-1.1029,-1.1028,-1.1035,-1.1036,-1.1039,-1.1034,-1.1033,-1.1033,-1.1031,-1.103,-1.104,-1.104,-1.104,-1.104,0,-1.0885,-1.0895,-1.0898,-1.0915,-1.0923,-1.0931,-1.0946,-1.0952,-1.096,-1.097,-1.098,-1.0994,-1.1008,-1.1011,-1.102,-1.1022,-1.1024,-1.1031,-1.1038,-1.103,-1.1029,-1.1028,-1.1039,-1.1039,-1.1039,-1.104,0,0,-1.0874,-1.0897,-1.0898,-1.0905,-1.0922,-1.093,-1.0937,-1.0949,-1.0954,-1.0966,-1.0972,-1.0986,-1.0992,-1.1,-1.101,-1.1013,-1.1007,-1.1019,-1.1019,-1.1015,-1.1009,-1.1003,-1.1002,-1.1013,-1.1013,-1.1013,-1.1007,0,-1.0872,-1.0885,-1.0897,-1.0906,-1.0914,-1.0927,-1.0933,-1.0944,-1.0953,-1.0961,-1.0971,-1.0981,-1.0988,-1.0993,-1.0996,-1.1007,-1.1006,-1.1008,-1.1018,-1.1018,-1.1013,-1.1001,-1.0995,-1.0989,-1.1006,-1.1006,-1.1006,0,-1.0872,-1.0882,-1.0891,-1.0906,-1.091,-1.0915,-1.0926,-1.0934,-1.0946,-1.0952,-1.096,-1.097,-1.0977,-1.0983,-1.0992,-1.0993,-1.0998,-1.1004,-1.1004,-1.1005,-1.1011,-1.1001,-1.0988,-1.0986,-1.1005,-1.1006,-1.1006,0,-1.0861,-1.0877,-1.0884,-1.089,-1.0907,-1.091,-1.0918,-1.093,-1.0936,-1.0945,-1.0949,-1.096,-1.0965,-1.0973,-1.0985,-1.0989,-1.0992,-1.1,-1.0997,-1.0997,-1.0997,-1.0997,-1.0984,-1.1002,-1.1002,-1.1002,-1.1002,0,-1.0857,-1.0862,-1.0879,-1.0883,-1.0889,-1.0902,-1.0907,-1.0915,-1.0925,-1.0931,-1.0943,-1.0947,-1.0963,-1.097,-1.0979,-1.0984,-1.0987,-1.0992,-1.0994,-1.099,-1.099,-1.0993,-1.0994,-1.1001,-1.1001,-1.1001,-1.1001,0,-1.0846,-1.0858,-1.0866,-1.0881,-1.0885,-1.0888,-1.0901,-1.0905,-1.0914,-1.092,-1.0923,-1.0937,-1.0945,-1.0957,-1.097,-1.0976,-1.0979,-1.0984,-1.0975,-1.0976,-1.0972,-1.0972,-1.096,-1.0958,-1.0978,-1.0978,-1.0978,0,-1.0843,-1.0847,-1.0861,-1.0865,-1.0872,-1.0879,-1.0885,-1.0897,-1.0902,-1.0915,-1.0917,-1.0926,-1.0933,-1.0945,-1.0956,-1.0965,-1.0969,-1.0964,-1.0971,-1.0966,-1.0968,-1.0967,-1.0967,-1.0963,-1.0963,-1.0962,-1.0962,0,-1.0835,-1.084,-1.0848,-1.0856,-1.0862,-1.087,-1.0878,-1.0881,-1.0895,-1.09,-1.0908,-1.0913,-1.0924,-1.0932,-1.0942,-1.095,-1.0958,-1.096,-1.096,-1.0955,-1.095,-1.0951,-1.097,-1.096,-1.0961,-1.0961,-1.0961,-1.0961,-1.0828,-1.0831,-1.0841,-1.0848,-1.0855,-1.0862,-1.0865,-1.0874,-1.0881,-1.089,-1.0897,-1.0904,-1.0913,-1.0927,-1.0934,-1.0939,-1.0943,-1.0942,-1.0942,-1.0942,-1.0939,-1.0949,-1.0941,-1.0941,-1.0941,-1.0941,-1.0941,0,-1.082,-1.0826,-1.0832,-1.0842,-1.0848,-1.0854,-1.0863,-1.0867,-1.0872,-1.088,-1.0887,-1.0894,-1.0901,-1.0912,-1.092,-1.0922,-1.0926,-1.0923,-1.0923,-1.0924,-1.0936,-1.0935,-1.092,-1.092,-1.092,-1.092,-1.092,-1.092,-1.0816,-1.0821,-1.0826,-1.0834,-1.084,-1.0847,-1.0851,-1.0856,-1.0863,-1.087,-1.0876,-1.0882,-1.0891,-1.0899,-1.0905,-1.0908,-1.091,-1.0906,-1.091,-1.0922,-1.0924,-1.0925,-1.0924,-1.0907,-1.0907,-1.0898,-1.0898,-1.0897]},{"header":{"parameterUnit":"m.s-1","parameterCategory":1,"la1":30.2991,"la2":30.254,"lo1":-89.0895,"lo2":-89.0444,"dy":0.0017,"dx":0.0017,"nx":28,"ny":28,"refTime":"2024-10-10T03:00:00:Z","depth":0,"parameterNumber":3,"parameterNumberName":"V-component_of_WINDS"},"data":[0,0,0,0,0,0,0,0,0,0,0,0,0,0,0,0,0,0,0,0,0,0,0,0,0,0,0,0,0,0,0,0,0,0,0,0,0,0,0,0,0,0,0,0,0,0,0,0,0,0,0,0,0,0,0,0,0,0,-4.2982,-4.2981,0,-4.2964,-4.2963,-4.2963,-4.2998,-4.2999,-4.3001,-4.3002,-4.2978,-4.2976,-4.2974,0,0,0,0,0,0,0,0,0,0,0,0,0,-4.3043,-4.3042,-4.2982,-4.2981,-4.2981,-4.2964,-4.2963,-4.2963,-4.2998,-4.2999,-4.3001,-4.3002,-4.2978,-4.2976,-4.2974,0,0,0,0,0,0,0,0,0,0,0,0,0,-4.302,-4.3042,-4.2982,-4.2997,-4.2998,-4.2964,-4.2963,-4.2963,-4.2998,-4.2999,-4.3001,-4.3003,-4.2979,-4.2977,-4.2974,-4.2923,0,0,-4.2966,-4.2965,0,0,0,0,0,0,0,0,-4.3021,-4.3018,-4.2995,-4.2996,-4.2997,-4.2985,-4.2976,-4.2949,-4.2997,-4.2998,-4.3002,-4.3004,-4.2978,-4.2976,-4.2969,-4.2922,-4.2921,-4.2966,-4.2964,-4.2963,-4.2962,0,0,0,0,0,0,0,-4.3023,-4.3018,-4.2974,-4.2994,-4.2996,-4.3003,-4.3002,-4.2971,-4.2978,-4.2998,-4.3,-4.2998,-4.2979,-4.2971,-4.2968,-4.292,-4.2966,-4.2964,-4.2962,-4.2961,-4.2832,-4.283,0,0,0,0,0,0,-4.3023,-4.302,-4.2975,-4.2974,-4.3014,-4.3001,-4.2999,-4.2987,-4.2979,-4.2979,-4.2996,-4.3,-4.2975,-4.2971,-4.2968,-4.2907,-4.2963,-4.2961,-4.2959,-4.2834,-4.2832,-4.283,0,0,0,0,0,0,-4.3024,-4.3019,-4.2976,-4.2997,-4.2993,-4.2998,-4.2984,-4.2986,-4.2977,-4.2978,-4.2979,-4.2987,-4.2976,-4.2971,-4.2934,-4.2907,-4.296,-4.2957,-4.2836,-4.2833,-4.2831,-4.2786,0,0,0,0,0,0,-4.3026,-4.3019,-4.3,-4.2997,-4.2991,-4.2943,-4.2982,-4.2984,-4.2973,-4.2977,-4.2969,-4.2969,-4.2977,-4.2938,-4.2932,-4.2904,-4.2955,-4.2838,-4.2835,-4.2831,-4.279,-4.2782,-4.2776,0,0,0,0,0,-4.3028,-4.2987,-4.2999,-4.2993,-4.2968,-4.2942,-4.2938,-4.2949,-4.2971,-4.2952,-4.2952,-4.2969,-4.2912,-4.2934,-4.2927,-4.2899,-4.284,-4.2836,-4.2832,-4.2793,-4.2784,-4.2776,0,0,0,0,0,0,-4.2983,-4.2986,-4.3,-4.2957,-4.2949,-4.2948,-4.2923,-4.2939,-4.2923,-4.2927,-4.2941,-4.2938,-4.2899,-4.2895,-4.292,-4.285,-4.2879,-4.2874,-4.2853,-4.2844,-4.2836,-4.2837,-4.2953,0,0,0,0,0,-4.2969,-4.2949,-4.2952,-4.2914,-4.291,-4.2917,-4.2906,-4.2916,-4.2908,-4.2904,-4.2902,-4.2892,-4.2872,-4.2858,-4.2839,-4.2791,-4.279,-4.2768,-4.2761,-4.2755,-4.2749,-4.2724,-4.2715,-4.2816,-4.2816,-4.2816,0,0,-4.2938,-4.2937,-4.2923,-4.2905,-4.29,-4.2878,-4.2914,-4.2888,-4.2872,-4.2899,-4.2865,-4.2863,-4.2853,-4.2811,-4.2792,-4.2807,-4.2722,-4.275,-4.2745,-4.2742,-4.2719,-4.2709,-4.2701,-4.2813,-4.2813,-4.2814,0,0,-4.287,-4.2868,-4.2836,-4.2832,-4.2825,-4.2831,-4.2824,-4.2821,-4.2822,-4.2788,-4.2809,-4.2789,-4.2754,-4.2746,-4.2738,-4.2671,-4.2686,-4.2665,-4.2626,-4.2601,-4.2593,-4.2586,-4.2562,-4.2553,-4.266,-4.266,-4.266,0,-4.2831,-4.28,-4.2817,-4.2791,-4.2782,-4.281,-4.2778,-4.2772,-4.2759,-4.2751,-4.2769,-4.2728,-4.2723,-4.2679,-4.2663,-4.2656,-4.2647,-4.2664,-4.2594,-4.2587,-4.258,-4.2557,-4.2548,-4.2657,-4.2657,-4.2658,-4.2658,0,-4.2753,-4.2731,-4.2706,-4.2696,-4.2685,-4.2655,-4.2667,-4.2654,-4.2666,-4.267,-4.2636,-4.2632,-4.2614,-4.2605,-4.2615,-4.2563,-4.2572,-4.2592,-4.2622,-4.2568,-4.2546,-4.2538,-4.2653,-4.2654,-4.2655,-4.2656,0,0,-4.2652,-4.2655,-4.2645,-4.2641,-4.2638,-4.2621,-4.2594,-4.2579,-4.2567,-4.2558,-4.2534,-4.2506,-4.2525,-4.2515,-4.2526,-4.2504,-4.2452,-4.2526,-4.2526,-4.2512,-4.2395,-4.2379,-4.2368,-4.2464,-4.2462,-4.2461,-4.2395,0,-4.2584,-4.2539,-4.2555,-4.2508,-4.2488,-4.2516,-4.2492,-4.2487,-4.2491,-4.2475,-4.2479,-4.2458,-4.2485,-4.248,-4.246,-4.2462,-4.2428,-4.2468,-4.244,-4.2439,-4.244,-4.2357,-4.2339,-4.2278,-4.2387,-4.2386,-4.2385,0,-4.2497,-4.2488,-4.244,-4.2443,-4.2435,-4.2413,-4.2402,-4.2386,-4.2381,-4.2386,-4.2377,-4.2393,-4.2366,-4.2398,-4.2361,-4.2387,-4.2378,-4.2378,-4.2376,-4.2371,-4.2407,-4.2349,-4.2258,-4.2248,-4.2372,-4.2373,-4.2374,0,-4.2428,-4.2403,-4.2372,-4.2368,-4.237,-4.2354,-4.2354,-4.2352,-4.2342,-4.2332,-4.2326,-4.2312,-4.2304,-4.2292,-4.2304,-4.2327,-4.2265,-4.2298,-4.2266,-4.2266,-4.2249,-4.225,-4.2154,-4.2247,-4.2247,-4.2247,-4.2247,0,-4.2349,-4.2317,-4.2341,-4.232,-4.2287,-4.2307,-4.2273,-4.2276,-4.2274,-4.2255,-4.2279,-4.226,-4.2277,-4.226,-4.2269,-4.2236,-4.2233,-4.2235,-4.2237,-4.2231,-4.2231,-4.2223,-4.2227,-4.2244,-4.2245,-4.2246,-4.2246,0,-4.2263,-4.2277,-4.2245,-4.2251,-4.2252,-4.2227,-4.2232,-4.2214,-4.2222,-4.2197,-4.2193,-4.2204,-4.2185,-4.2197,-4.2176,-4.2183,-4.214,-4.215,-4.2142,-4.2144,-4.2111,-4.2113,-4.2005,-4.1992,-4.2095,-4.2094,-4.2093,0,-4.221,-4.2188,-4.2193,-4.2183,-4.2183,-4.2166,-4.2157,-4.2177,-4.2166,-4.2162,-4.2144,-4.2128,-4.2116,-4.2085,-4.209,-4.2076,-4.2083,-4.2047,-4.2081,-4.2077,-4.2081,-4.2082,-4.2079,-4.2039,-4.2037,-4.2036,-4.2036,0,-4.2115,-4.2124,-4.2112,-4.2103,-4.2093,-4.2086,-4.2081,-4.2071,-4.2091,-4.2078,-4.2061,-4.2052,-4.2034,-4.2017,-4.2006,-4.2005,-4.2023,-4.2026,-4.2017,-4.201,-4.2006,-4.2007,-4.2121,-4.2027,-4.2028,-4.2029,-4.2029,-4.2029,-4.2043,-4.2025,-4.2027,-4.2013,-4.2012,-4.2008,-4.1991,-4.1999,-4.1985,-4.1973,-4.1986,-4.1965,-4.1963,-4.195,-4.1947,-4.1931,-4.1945,-4.1933,-4.193,-4.1926,-4.1921,-4.2011,-4.1929,-4.1929,-4.1929,-4.1929,-4.193,0,-4.1948,-4.1952,-4.1939,-4.1933,-4.1922,-4.1945,-4.1941,-4.193,-4.1912,-4.191,-4.1899,-4.1879,-4.1864,-4.1871,-4.1857,-4.1843,-4.1851,-4.1839,-4.1839,-4.1838,-4.1909,-4.1917,-4.1833,-4.1833,-4.1833,-4.1833,-4.1833,-4.1833,-4.1897,-4.1867,-4.1878,-4.1848,-4.1852,-4.1833,-4.183,-4.1826,-4.1824,-4.1803,-4.1791,-4.1797,-4.1798,-4.1786,-4.1773,-4.1776,-4.1769,-4.1753,-4.1758,-4.1823,-4.1833,-4.1842,-4.1849,-4.1752,-4.1752,-4.1688,-4.1687,-4.1687]}]]